DLH1390 EDDF-EGLL

Flight info

Callsign DLH1390
Flight time 1h 2m
Altitude 30000
Route OBOKA5G/25C OBOKA Z29 TORNU ABNED L980 LOGAN LOGA2H
Aircraft A359/H-V/N

Departure

Time 2026-05-05 11:40
Airport Frankfurt Main Airport (EDDF)

Arrival

Time 2026-05-05 12:43
Airport London Heathrow Airport (EGLL)
Time Latitude Longitude Altitude Speed Heading
2026-05-05 11:13 50.04754 8.56388 374 ft 0 kts 340°
2026-05-05 11:20 50.04753 8.56388 374 ft 1 kts 340°
2026-05-05 11:20 50.04739 8.56397 374 ft 2 kts 337°
2026-05-05 11:21 50.04724 8.56406 374 ft 2 kts 340°
2026-05-05 11:21 50.04715 8.56411 374 ft 2 kts 337°
2026-05-05 11:21 50.04701 8.56424 374 ft 2 kts 315°
2026-05-05 11:21 50.04691 8.56442 374 ft 2 kts 299°
2026-05-05 11:22 50.04685 8.56465 374 ft 2 kts 282°
2026-05-05 11:22 50.04683 8.56488 375 ft 2 kts 266°
2026-05-05 11:22 50.04685 8.56511 375 ft 0 kts 251°
2026-05-05 11:22 50.04684 8.56503 375 ft 3 kts 252°
2026-05-05 11:23 50.04674 8.56462 374 ft 3 kts 250°
2026-05-05 11:23 50.04665 8.56422 373 ft 3 kts 250°
2026-05-05 11:23 50.04655 8.56382 372 ft 3 kts 250°
2026-05-05 11:23 50.04645 8.56341 371 ft 3 kts 250°
2026-05-05 11:24 50.04636 8.56301 371 ft 3 kts 250°
2026-05-05 11:24 50.04626 8.56260 371 ft 3 kts 250°
2026-05-05 11:24 50.04617 8.56221 371 ft 3 kts 250°
2026-05-05 11:24 50.04607 8.56181 371 ft 3 kts 250°
2026-05-05 11:25 50.04597 8.56142 371 ft 3 kts 250°
2026-05-05 11:25 50.04588 8.56103 371 ft 3 kts 250°
2026-05-05 11:25 50.04583 8.56082 371 ft 0 kts 250°
2026-05-05 11:28 50.04581 8.56074 371 ft 2 kts 250°
2026-05-05 11:28 50.04568 8.56020 371 ft 7 kts 249°
2026-05-05 11:29 50.04516 8.55955 371 ft 12 kts 202°
2026-05-05 11:29 50.04418 8.55912 369 ft 16 kts 186°
2026-05-05 11:29 50.04291 8.55954 366 ft 20 kts 179°
2026-05-05 11:29 50.04140 8.55941 361 ft 20 kts 161°
2026-05-05 11:30 50.04088 8.56108 360 ft 20 kts 74°
2026-05-05 11:30 50.04134 8.56309 363 ft 20 kts 69°
2026-05-05 11:30 50.04186 8.56526 365 ft 21 kts 70°
2026-05-05 11:30 50.04239 8.56748 369 ft 22 kts 70°
2026-05-05 11:31 50.04290 8.56965 373 ft 22 kts 70°
2026-05-05 11:31 50.04345 8.57191 374 ft 23 kts 69°
2026-05-05 11:31 50.04405 8.57439 374 ft 26 kts 70°
2026-05-05 11:31 50.04470 8.57716 375 ft 27 kts 70°
2026-05-05 11:32 50.04534 8.57986 380 ft 27 kts 70°
2026-05-05 11:32 50.04601 8.58265 383 ft 28 kts 70°
2026-05-05 11:32 50.04649 8.58465 379 ft 13 kts 74°
2026-05-05 11:32 50.04632 8.58555 375 ft 11 kts 139°
2026-05-05 11:33 50.04610 8.58575 374 ft 0 kts 154°
2026-05-05 11:33 50.04609 8.58575 374 ft 0 kts 154°
2026-05-05 11:33 50.04598 8.58584 373 ft 1 kts 156°
2026-05-05 11:33 50.04596 8.58585 373 ft 0 kts 156°
2026-05-05 11:37 50.04596 8.58586 373 ft 0 kts 156°
2026-05-05 11:38 50.04562 8.58609 372 ft 9 kts 156°
2026-05-05 11:38 50.04488 8.58569 372 ft 13 kts 233°
2026-05-05 11:38 50.04470 8.58515 374 ft 0 kts 249°
2026-05-05 11:39 50.04470 8.58512 374 ft 0 kts 249°
2026-05-05 11:39 50.04469 8.58507 374 ft 4 kts 249°
2026-05-05 11:40 50.04366 8.58089 378 ft 88 kts 249°
2026-05-05 11:40 50.04033 8.56705 371 ft 176 kts 249°
2026-05-05 11:40 50.03533 8.54752 988 ft 208 kts 248°
2026-05-05 11:40 50.03024 8.52607 2170 ft 224 kts 250°
2026-05-05 11:41 50.02667 8.50235 3548 ft 236 kts 270°
2026-05-05 11:41 50.02845 8.47626 4276 ft 247 kts 273°
2026-05-05 11:41 50.02511 8.44926 4814 ft 265 kts 246°
2026-05-05 11:41 50.01795 8.42163 5090 ft 296 kts 254°
2026-05-05 11:42 50.01564 8.38663 4946 ft 340 kts 267°
2026-05-05 11:42 50.01405 8.34876 5039 ft 351 kts 265°
2026-05-05 11:42 50.01234 8.31083 4965 ft 347 kts 264°
2026-05-05 11:42 50.01256 8.27362 4992 ft 356 kts 279°
2026-05-05 11:43 50.02184 8.23786 6001 ft 358 kts 300°
2026-05-05 11:43 50.03383 8.20459 7113 ft 354 kts 294°
2026-05-05 11:43 50.04427 8.16976 7973 ft 360 kts 293°
2026-05-05 11:43 50.05435 8.13527 8828 ft 366 kts 294°
2026-05-05 11:44 50.06802 8.10212 9664 ft 372 kts 308°
2026-05-05 11:44 50.08449 8.07059 10539 ft 377 kts 308°
2026-05-05 11:44 50.10135 8.03796 11389 ft 382 kts 308°
2026-05-05 11:44 50.11782 8.00594 12217 ft 388 kts 308°
2026-05-05 11:45 50.13500 7.97252 12867 ft 389 kts 308°
2026-05-05 11:45 50.15236 7.93869 12819 ft 395 kts 308°
2026-05-05 11:45 50.16948 7.90529 12817 ft 391 kts 308°
2026-05-05 11:45 50.18679 7.87148 13559 ft 408 kts 308°
2026-05-05 11:46 50.20456 7.83678 15249 ft 405 kts 307°
2026-05-05 11:46 50.22202 7.80259 16374 ft 412 kts 307°
2026-05-05 11:46 50.24041 7.76659 17259 ft 424 kts 308°
2026-05-05 11:46 50.26237 7.73493 18343 ft 432 kts 324°
2026-05-05 11:47 50.28899 7.71276 19475 ft 435 kts 330°
2026-05-05 11:47 50.31287 7.68421 20330 ft 440 kts 313°
2026-05-05 11:47 50.33075 7.64469 21265 ft 441 kts 296°
2026-05-05 11:47 50.34650 7.60403 22158 ft 447 kts 302°
2026-05-05 11:48 50.38373 7.52364 23862 ft 457 kts 305°
2026-05-05 11:48 50.40321 7.48339 24639 ft 463 kts 305°
2026-05-05 11:48 50.42324 7.44220 25367 ft 469 kts 305°
2026-05-05 11:49 50.44372 7.40006 26074 ft 474 kts 305°
2026-05-05 11:49 50.46457 7.35716 26790 ft 478 kts 305°
2026-05-05 11:49 50.48404 7.31702 27383 ft 482 kts 304°
2026-05-05 11:49 50.50431 7.27519 28049 ft 485 kts 304°
2026-05-05 11:50 50.52471 7.23302 28567 ft 488 kts 304°
2026-05-05 11:50 50.54570 7.18956 29072 ft 492 kts 304°
2026-05-05 11:50 50.56640 7.14663 29514 ft 495 kts 303°
2026-05-05 11:50 50.58742 7.10296 29849 ft 499 kts 304°
2026-05-05 11:51 50.60903 7.05798 30252 ft 500 kts 303°
2026-05-05 11:51 50.63039 7.01346 30538 ft 503 kts 304°
2026-05-05 11:51 50.65155 6.96926 30821 ft 505 kts 304°
2026-05-05 11:51 50.67353 6.92334 31104 ft 507 kts 303°
2026-05-05 11:52 50.69527 6.87777 31340 ft 508 kts 303°
2026-05-05 11:52 50.71724 6.83167 31504 ft 510 kts 303°
2026-05-05 11:52 50.73827 6.78745 31677 ft 510 kts 303°
2026-05-05 11:52 50.76029 6.74107 31823 ft 511 kts 303°
2026-05-05 11:53 50.80458 6.64753 31891 ft 514 kts 303°
2026-05-05 11:53 50.82578 6.60288 31995 ft 514 kts 303°
2026-05-05 11:53 50.84741 6.55731 31841 ft 511 kts 303°
2026-05-05 11:54 50.86801 6.51268 31836 ft 483 kts 303°
2026-05-05 11:54 50.88811 6.47012 31865 ft 485 kts 303°
2026-05-05 11:54 50.92965 6.38155 31919 ft 498 kts 303°
2026-05-05 11:55 50.97125 6.29250 31866 ft 497 kts 302°
2026-05-05 11:55 51.01213 6.20470 31885 ft 494 kts 302°
2026-05-05 11:56 51.05366 6.11516 31892 ft 495 kts 302°
2026-05-05 11:56 51.09481 6.02614 31891 ft 494 kts 302°
2026-05-05 11:57 51.13538 5.93812 31881 ft 493 kts 302°
2026-05-05 11:57 51.17664 5.84802 31888 ft 493 kts 301°
2026-05-05 11:58 51.19323 5.79949 31869 ft 485 kts 289°
2026-05-05 11:58 51.20603 5.74906 31902 ft 484 kts 288°
2026-05-05 11:58 51.23230 5.64851 31882 ft 485 kts 289°
2026-05-05 11:59 51.25880 5.54745 31885 ft 485 kts 289°
2026-05-05 11:59 51.28515 5.44668 31885 ft 484 kts 289°
2026-05-05 12:00 51.31162 5.34497 31893 ft 483 kts 288°
2026-05-05 12:00 51.33770 5.24431 31892 ft 484 kts 288°
2026-05-05 12:01 51.36363 5.14376 31892 ft 483 kts 288°
2026-05-05 12:01 51.39008 5.04073 31895 ft 483 kts 288°
2026-05-05 12:02 51.41585 4.93993 31899 ft 483 kts 288°
2026-05-05 12:02 51.44121 4.84026 31902 ft 483 kts 288°
2026-05-05 12:03 51.46638 4.74089 31908 ft 483 kts 288°
2026-05-05 12:03 51.49139 4.64168 31912 ft 483 kts 288°
2026-05-05 12:04 51.51651 4.54170 31910 ft 483 kts 288°
2026-05-05 12:04 51.54163 4.44121 31911 ft 484 kts 288°
2026-05-05 12:05 51.56663 4.34069 31915 ft 483 kts 288°
2026-05-05 12:05 51.59185 4.23885 31914 ft 484 kts 288°
2026-05-05 12:06 51.61662 4.13840 31914 ft 484 kts 288°
2026-05-05 12:06 51.64170 4.03623 31908 ft 485 kts 288°
2026-05-05 12:07 51.66657 3.93441 31899 ft 485 kts 288°
2026-05-05 12:07 51.69170 3.83108 31911 ft 485 kts 288°
2026-05-05 12:08 51.71667 3.72792 31921 ft 487 kts 288°
2026-05-05 12:08 51.74158 3.62447 31917 ft 488 kts 288°
2026-05-05 12:09 51.76631 3.52135 31926 ft 488 kts 288°
2026-05-05 12:09 51.79087 3.41842 31930 ft 488 kts 288°
2026-05-05 12:10 51.81543 3.31493 31941 ft 486 kts 287°
2026-05-05 12:10 51.84013 3.20991 31935 ft 487 kts 286°
2026-05-05 12:11 51.84727 3.15713 31920 ft 480 kts 271°
2026-05-05 12:11 51.84576 3.10303 31948 ft 474 kts 259°
2026-05-05 12:11 51.83777 2.99414 31934 ft 478 kts 261°
2026-05-05 12:12 51.83057 2.88615 31944 ft 479 kts 261°
2026-05-05 12:12 51.82324 2.77659 31945 ft 477 kts 261°
2026-05-05 12:13 51.81405 2.67060 31923 ft 472 kts 251°
2026-05-05 12:13 51.80011 2.62230 31935 ft 468 kts 235°
2026-05-05 12:13 51.77859 2.58284 31948 ft 465 kts 220°
2026-05-05 12:14 51.75140 2.55506 31937 ft 464 kts 204°
2026-05-05 12:14 51.72062 2.54078 31937 ft 463 kts 188°
2026-05-05 12:14 51.65624 2.53684 31955 ft 464 kts 182°
2026-05-05 12:15 51.59172 2.53015 31917 ft 463 kts 193°
2026-05-05 12:15 51.56182 2.51125 31927 ft 463 kts 209°
2026-05-05 12:15 51.53620 2.47933 31934 ft 468 kts 224°
2026-05-05 12:16 51.51717 2.43758 31930 ft 473 kts 240°
2026-05-05 12:16 51.50566 2.38729 31933 ft 478 kts 255°
2026-05-05 12:16 51.50315 2.33328 31937 ft 484 kts 270°
2026-05-05 12:16 51.50589 2.27833 31953 ft 485 kts 271°
2026-05-05 12:17 51.51110 2.16993 31899 ft 477 kts 271°
2026-05-05 12:17 51.51601 2.11793 30870 ft 480 kts 281°
2026-05-05 12:17 51.52501 2.06439 29151 ft 487 kts 283°
2026-05-05 12:18 51.53387 2.01124 28048 ft 480 kts 283°
2026-05-05 12:18 51.54237 1.95984 27225 ft 472 kts 283°
2026-05-05 12:18 51.55076 1.90889 26252 ft 467 kts 283°
2026-05-05 12:18 51.55888 1.85936 25612 ft 456 kts 283°
2026-05-05 12:19 51.56657 1.81240 25760 ft 429 kts 283°
2026-05-05 12:19 51.57416 1.76585 25358 ft 417 kts 283°
2026-05-05 12:19 51.58138 1.72134 24585 ft 415 kts 283°
2026-05-05 12:19 51.58876 1.67581 23873 ft 411 kts 283°
2026-05-05 12:20 51.59588 1.63179 23231 ft 407 kts 283°
2026-05-05 12:20 51.60292 1.58814 22583 ft 403 kts 283°
2026-05-05 12:20 51.60989 1.54480 21944 ft 399 kts 283°
2026-05-05 12:20 51.61680 1.50173 21267 ft 397 kts 283°
2026-05-05 12:21 51.62358 1.45938 20683 ft 392 kts 283°
2026-05-05 12:21 51.63037 1.41687 20049 ft 388 kts 284°
2026-05-05 12:21 51.63697 1.37539 19420 ft 386 kts 284°
2026-05-05 12:21 51.64365 1.33330 18791 ft 382 kts 283°
2026-05-05 12:22 51.65020 1.29203 18185 ft 379 kts 283°
2026-05-05 12:22 51.65660 1.25152 17608 ft 375 kts 283°
2026-05-05 12:22 51.66308 1.21041 17036 ft 371 kts 283°
2026-05-05 12:22 51.66941 1.17012 16458 ft 368 kts 284°
2026-05-05 12:23 51.67569 1.13010 15959 ft 368 kts 284°
2026-05-05 12:23 51.68206 1.08938 15985 ft 367 kts 284°
2026-05-05 12:23 51.68834 1.04921 15964 ft 368 kts 284°
2026-05-05 12:23 51.69459 1.00900 15930 ft 363 kts 284°
2026-05-05 12:24 51.70066 0.96990 15496 ft 358 kts 284°
2026-05-05 12:24 51.70347 0.93028 14744 ft 362 kts 268°
2026-05-05 12:24 51.70036 0.89003 14162 ft 359 kts 263°
2026-05-05 12:24 51.69720 0.85022 13622 ft 355 kts 264°
2026-05-05 12:25 51.69426 0.81048 13066 ft 352 kts 264°
2026-05-05 12:25 51.69149 0.77202 12662 ft 345 kts 264°
2026-05-05 12:25 51.68881 0.73457 12719 ft 325 kts 264°
2026-05-05 12:25 51.68628 0.69913 12689 ft 309 kts 264°
2026-05-05 12:26 51.68386 0.66544 12463 ft 302 kts 264°
2026-05-05 12:26 51.68147 0.63196 12096 ft 300 kts 264°
2026-05-05 12:26 51.67907 0.59853 11922 ft 300 kts 265°
2026-05-05 12:26 51.67669 0.56565 11766 ft 295 kts 265°
2026-05-05 12:27 51.67427 0.53229 11318 ft 296 kts 265°
2026-05-05 12:27 51.67185 0.49890 10918 ft 296 kts 265°
2026-05-05 12:27 51.66945 0.46603 10564 ft 294 kts 265°
2026-05-05 12:27 51.66706 0.43340 10219 ft 293 kts 265°
2026-05-05 12:28 51.66468 0.40102 9855 ft 293 kts 264°
2026-05-05 12:28 51.66224 0.36800 9245 ft 302 kts 264°
2026-05-05 12:28 51.65973 0.33413 8898 ft 298 kts 264°
2026-05-05 12:28 51.65731 0.30180 8977 ft 289 kts 264°
2026-05-05 12:29 51.65492 0.26969 8918 ft 286 kts 264°
2026-05-05 12:29 51.65254 0.23803 8945 ft 285 kts 264°
2026-05-05 12:29 51.65014 0.20621 8944 ft 286 kts 264°
2026-05-05 12:29 51.64775 0.17451 8920 ft 286 kts 264°
2026-05-05 12:30 51.64545 0.14285 8946 ft 287 kts 265°
2026-05-05 12:30 51.64375 0.11062 8936 ft 287 kts 266°
2026-05-05 12:30 51.64207 0.07852 8928 ft 287 kts 266°
2026-05-05 12:30 51.64040 0.04633 8930 ft 287 kts 266°
2026-05-05 12:31 51.63874 0.01469 8936 ft 286 kts 266°
2026-05-05 12:31 51.63704 -0.01732 8953 ft 287 kts 266°
2026-05-05 12:31 51.63537 -0.04958 8946 ft 286 kts 266°
2026-05-05 12:31 51.63369 -0.08172 8948 ft 287 kts 266°
2026-05-05 12:32 51.63201 -0.11349 8946 ft 287 kts 266°
2026-05-05 12:32 51.63034 -0.14555 8938 ft 286 kts 266°
2026-05-05 12:32 51.62868 -0.17733 8955 ft 286 kts 266°
2026-05-05 12:32 51.62697 -0.20969 8948 ft 285 kts 266°
2026-05-05 12:33 51.62529 -0.24138 8739 ft 282 kts 266°
2026-05-05 12:33 51.62358 -0.27306 8303 ft 285 kts 266°
2026-05-05 12:33 51.62185 -0.30512 7964 ft 286 kts 266°
2026-05-05 12:33 51.62009 -0.33770 7968 ft 281 kts 266°
2026-05-05 12:34 51.61840 -0.36839 7941 ft 271 kts 266°
2026-05-05 12:34 51.61674 -0.39831 7928 ft 258 kts 266°
2026-05-05 12:34 51.61518 -0.42639 7948 ft 252 kts 266°
2026-05-05 12:34 51.61360 -0.45499 7957 ft 251 kts 266°
2026-05-05 12:35 51.61205 -0.48294 7957 ft 251 kts 266°
2026-05-05 12:35 51.61048 -0.51092 7902 ft 247 kts 266°
2026-05-05 12:35 51.60892 -0.53843 7632 ft 249 kts 266°
2026-05-05 12:35 51.60733 -0.56643 7240 ft 256 kts 266°
2026-05-05 12:36 51.60567 -0.59565 6749 ft 265 kts 266°
2026-05-05 12:36 51.60399 -0.62541 6265 ft 272 kts 266°
2026-05-05 12:36 51.60225 -0.65597 5779 ft 279 kts 266°
2026-05-05 12:36 51.60044 -0.68732 5289 ft 284 kts 266°
2026-05-05 12:37 51.59857 -0.71876 4801 ft 288 kts 266°
2026-05-05 12:37 51.59473 -0.75076 4285 ft 294 kts 249°
2026-05-05 12:37 51.58291 -0.77765 3945 ft 292 kts 221°
2026-05-05 12:37 51.56565 -0.79209 4005 ft 274 kts 193°
2026-05-05 12:38 51.54722 -0.79477 3974 ft 259 kts 180°
2026-05-05 12:38 51.52964 -0.79539 3925 ft 243 kts 173°
2026-05-05 12:38 51.51448 -0.78678 3886 ft 224 kts 139°
2026-05-05 12:38 51.50427 -0.76936 3886 ft 207 kts 126°
2026-05-05 12:39 51.49533 -0.75179 3838 ft 197 kts 126°
2026-05-05 12:39 51.48669 -0.73494 3593 ft 195 kts 126°
2026-05-05 12:39 51.47847 -0.71781 3274 ft 192 kts 111°
2026-05-05 12:39 51.47648 -0.69745 2808 ft 182 kts 83°
2026-05-05 12:40 51.47675 -0.67705 2443 ft 181 kts 86°
2026-05-05 12:40 51.47682 -0.65635 2216 ft 183 kts 86°
2026-05-05 12:40 51.47691 -0.63582 2008 ft 181 kts 85°
2026-05-05 12:40 51.47700 -0.61579 1789 ft 178 kts 85°
2026-05-05 12:41 51.47709 -0.59682 1492 ft 163 kts 86°
2026-05-05 12:41 51.47716 -0.57876 1258 ft 159 kts 86°
2026-05-05 12:41 51.47724 -0.56088 1028 ft 152 kts 86°
2026-05-05 12:41 51.47732 -0.54371 820 ft 150 kts 86°
2026-05-05 12:42 51.47742 -0.52698 647 ft 149 kts 87°
2026-05-05 12:42 51.47736 -0.51011 486 ft 149 kts 88°
2026-05-05 12:42 51.47736 -0.49325 273 ft 146 kts 86°
2026-05-05 12:42 51.47759 -0.47785 91 ft 133 kts 88°
2026-05-05 12:43 51.47759 -0.46553 91 ft 83 kts 90°
2026-05-05 12:43 51.47760 -0.45949 86 ft 30 kts 90°
2026-05-05 12:43 51.47757 -0.45570 89 ft 28 kts 108°
2026-05-05 12:43 51.47689 -0.45476 90 ft 11 kts 167°
2026-05-05 12:44 51.47662 -0.45471 90 ft 0 kts 176°
2026-05-05 12:44 51.47659 -0.45471 90 ft 0 kts 175°
2026-05-05 12:44 51.47646 -0.45470 90 ft 3 kts 175°
2026-05-05 12:44 51.47613 -0.45454 91 ft 6 kts 142°
2026-05-05 12:45 51.47597 -0.45375 93 ft 8 kts 94°
2026-05-05 12:45 51.47596 -0.45262 94 ft 13 kts 90°
2026-05-05 12:45 51.47597 -0.45098 97 ft 16 kts 88°
2026-05-05 12:45 51.47598 -0.44894 97 ft 19 kts 88°
2026-05-05 12:46 51.47592 -0.44707 96 ft 15 kts 120°
2026-05-05 12:46 51.47516 -0.44627 96 ft 10 kts 131°
2026-05-05 12:46 51.47461 -0.44565 96 ft 9 kts 169°
2026-05-05 12:46 51.47396 -0.44561 98 ft 8 kts 178°
2026-05-05 12:47 51.47336 -0.44560 99 ft 8 kts 179°
2026-05-05 12:47 51.47274 -0.44559 99 ft 9 kts 179°
2026-05-05 12:47 51.47206 -0.44558 99 ft 10 kts 179°
2026-05-05 12:47 51.47138 -0.44557 101 ft 9 kts 179°
2026-05-05 12:48 51.47071 -0.44556 102 ft 9 kts 180°
2026-05-05 12:48 51.47008 -0.44557 102 ft 8 kts 179°
2026-05-05 12:48 51.46954 -0.44572 101 ft 7 kts 226°
2026-05-05 12:48 51.46938 -0.44656 101 ft 7 kts 262°
2026-05-05 12:49 51.46936 -0.44699 101 ft 0 kts 269°
2026-05-05 12:49 51.46936 -0.44700 101 ft 0 kts 269°